www.pogodaiklimat.ru

Погода и климат >> Архив погоды >> Россия >> Приморский край >> Терней


АРХИВ ПОГОДЫ в Тернее

Время (UTC), дата Ветер
(напр.,м/с)
 
Видим.   Явления Облачность Т
(С)
Тd
(С)
f
(%)
Тe
(С)
Тes
(С)
Комфортность P
(гПа)
Po
(гПа)
Тmin
(С)
Tmax
(С)
R
(мм)
R24
(мм)
S
(см)
06 9.01 З 11-17
{21}
50 км ясно -4.4 -26.8 16 -13 -13 1009.7 1001.8
09 9.01 З 9-15
{17}
20 км ясно -7.0 -24.8 23 -16 -16 1011.2 1003.3 -3.3
12 9.01 З 8-12
{15}
20 км ясно -6.0 -25.3 20 -14 -14 1011.7 1003.7
15 9.01 З 9-14
{16}
20 км ясно -5.4 -24.5 21 -14 -14 1011.6 1003.6
18 9.01 З 8-12
{18}
20 км ясно -6.2 -22.4 26 -14 -14 1012.1 1004.1
21 9.01 З 5
{13}
20 км ясно -7.0 -21.7 30 -14 -14 1010.8 1002.9 -7.0
00 10.01 З 5
{10}
50 км ясно -5.0 -21.5 26 -11 -11 1010.7 1002.7 -7.3
03 10.01 СЗ 8-14
{14}
50 км ясно -0.1 -21.9 18 -6 -6 1007.4 999.6
06 10.01 СЗ 8-14
{19}
50 км 1/1 600 м
[Cu hum]
-2.0 -19.6 25 -9 -9 1007.5 999.7
09 10.01 СЗ 6-11
{16}
20 км ясно -5.6 -18.6 35 -13 -13 1011.2 1003.3 +0.3
12 10.01 СЗ 7-13
{16}
20 км ясно -7.4 -19.6 37 -16 -16 1013.4 1005.4
15 10.01 СЗ 7-17
{21}
20 км ясно -8.5 -19.5 41 -17 -17 1015.0 1007.0
18 10.01 СЗ 8-16
{17}
20 км ясно -9.7 -20.3 42 -19 -19 1016.6 1008.5
21 10.01 СЗ 6-10
{16}
20 км ясно -10.7 -20.3 45 -19 -19 1019.7 1011.6 -10.7
00 11.01 СЗ 7-13
{16}
50 км ясно -9.3 -20.8 39 -18 -18 1020.8 1012.6 -11.2
03 11.01 З 11-18
{18}
50 км ясно -5.0 -23.5 22 -14 -14 1019.3 1011.3
06 11.01 З 9-15
{21}
50 км ясно -4.9 -24.9 19 -13 -13 1019.3 1011.3
09 11.01 З 8-13
{17}
20 км 3/0
[Ac lent]
-6.8 -24.5 23 -15 -15 1021.0 1013.0 -4.0
12 11.01 СЗ 8-16
{17}
20 км ясно -7.7 -23.7 26 -16 -16 1021.2 1013.1
15 11.01 З 7-14
{17}
20 км ясно -8.0 -22.0 31 -16 -16 1021.5 1013.4
18 11.01 СЗ 4
{14}
20 км ясно -8.3 -21.6 33 -15 -15 1022.3 1014.1
21 11.01 СЗ 4
{11}
20 км ясно -8.6 -21.0 36 -15 -15 1023.2 1015.1 -8.8
00 12.01 СЗ 2
{11}
50 км ясно -6.1 -20.3 32 -10 -8 1024.5 1016.4 -10.0
03 12.01 СЗ 2 50 км ясно -1.5 -19.4 24 -4 -0 1023.4 1015.5
06 12.01 ЮВ 3 50 км ясно -2.4 -14.1 40 -7 -6 1022.7 1014.8
09 12.01 ЮЗ 2 20 км ясно -5.4 -14.2 50 -9 -9 1024.5 1016.4 0.0
12 12.01 СЗ 3 20 км ясно -9.1 -16.4 55 -15 -15 1025.5 1017.4
15 12.01 СЗ 3 20 км ясно -11.3 -18.0 58 -17 -17 1025.6 1017.4
18 12.01 СЗ 3 20 км ясно -12.9 -18.5 63 -19 -19 1026.4 1018.1
21 12.01 СЗ 3 20 км ясно -14.5 -18.8 70 -21 -21 1026.4 1018.1 -14.5
00 13.01 СЗ 3 50 км ясно -12.6 -17.8 65 -19 -18 1026.8 1018.5 -14.9
03 13.01 СЗ 2 50 км ясно -3.4 -16.9 34 -7 -3 1024.6 1016.6
06 13.01 ЮВ 3 50 км ясно -2.0 -8.4 62 -7 -6 1023.9 1016.0
09 13.01 ЮЗ 1 20 км ясно -5.2 -9.0 75 -7 -7 1024.5 1016.5 -1.3
12 13.01 СЗ 3 20 км ясно -8.9 -11.2 83 -15 -15 1025.1 1017.0
15 13.01 СЗ 3 20 км ясно -11.5 -14.7 77 -17 -17 1025.2 1017.0
18 13.01 СЗ 2 20 км ясно -12.9 -15.3 82 -18 -18 1025.5 1017.2
21 13.01 СЗ 3 20 км ясно -14.7 -17.3 81 -21 -21 1024.7 1016.4 -14.7
00 14.01 СЗ 3 50 км 8/0
[Cs]
-11.3 -15.6 70 -17 -16 1024.8 1016.6
03 14.01 СЗ 2 50 км 8/0
[Cs]
-3.7 -14.8 42 -7 -4 1022.3 1014.3
06 14.01 штиль 0 50 км 6/0
[Cs]
-0.7 -9.9 50 -1 0 1021.2 1013.3
09 14.01 З 2 20 км 3/0
[Cs]
-5.1 -10.0 68 -9 -9 1021.3 1013.3 -0.2
12 14.01 З 3 20 км 10/0
[Cs]
-4.7 -15.1 44 -9 -9 1020.7 1012.7
15 14.01 З 2 20 км 10/0
[Cs]
-6.0 -15.0 49 -10 -10 1019.5 1011.5
18 14.01 З 3 20 км 10/0
[Cs]
-9.1 -14.7 64 -15 -15 1018.3 1010.2
21 14.01 СЗ 1 20 км 10/0
[Cs]
-8.5 -14.4 62 -11 -11 1016.5 1008.4 -9.7
00 15.01 СЗ 3 50 км 10/0
[As op]
-5.6 -12.9 56 -11 -11 1014.4 1006.4
03 15.01 СЗ 4 50 км 10/0
[As op]
-3.8 -12.9 49 -9 -9 1010.3 1002.4
06 15.01 СЗ 5 4000 м слаб. снег 10/0
[As op]
-4.3 -10.6 61 -11 -11 1006.9 999.0
09 15.01 З 8-14
{18}
20 км {снег} 8/3 1000 м
[Sc Ac lent Ci sp]
-5.5 -16.3 42 -14 -14 1005.9 998.0 -3.6 0.0
12 15.01 З 8-14
{18}
20 км {снег} 8/3 1000 м
[Sc Ac lent Ci sp]
-5.5 -16.3 42 -14 -14 1005.9 998.0 -3.6 0.0
15 15.01 СЗ 8-16
{19}
20 км {снег} 8/0
[Cs]
-7.9 -19.1 40 -17 -17 1006.0 998.0
18 15.01 СЗ 11-22
{23}
20 км 3/0
[Cs]
-12.3 -24.7 35 -24 -24 1007.9 999.8
21 15.01 З 5-11
{24}
20 км ясно -14.7 -30.2 25 -23 -23 1011.9 1003.7 -14.9
00 16.01 З 5
{15}
50 км 3/0
[Ac trans]
-14.8 -28.4 30 -24 -23 1012.8 1004.6 -15.9
03 16.01 З 6-10
{12}
50 км 8/4 600 м
[Sc Ac trans Cc]
-11.2 -27.3 25 -20 -19 1011.0 1002.8

 

Местоположение метеостанции Терней (Приморский край, Россия): широта 45.00 долгота 136.60 высота над уровнем моря 62 м.

В архиве по умолчанию представлена погода в Тернее за последнюю неделю. Архивные данные за месяц целиком и за предыдущие месяцы, начиная с января 2011 года, Вы можете получить, выбрав интересующий диапазон дат из раскрывающегося списка и нажав кнопку "Ввод!".


*Определитесь, кто Вы:
робот инопланетянин человек

Внимание! Время в таблицах - всемирное. Для получения местного времени необходимо прибавить поправку, которая равна 10 ч.

Смотрите также архив погоды в соседних городах и на ближайших метеорологических станциях:

Погода в Малой Кеме (Приморский край, Россия) (59 км)
Погода в Рудной Пристани (Приморский край, Россия) (94 км)
Погода в Мельничном (Приморский край, Россия) (100 км)
Погода в Богополе (Приморский край, Россия) (126 км)
Погода в Кавалерово (Приморский край, Россия) (152 км)
Погода в Глубинном (Приморский край, Россия) (156 км)
Погода в Ольге (Приморский край, Россия) (173 км)
Погода в Дальнегорске (Приморский край, Россия) (181 км)
Погода в Малиново (Приморский край, Россия) (194 км)
Погода в Красном Яре (Приморский край, Россия) (198 км)

Пояснения к столбцам:

Ветер - указаны скорость ветра в м/с - средняя за 10 мин, порывы в срок и между сроками (в фигурных скобках) и направление, откуда дует ветер: С - северный, СВ - северо-восточный, В - восточный, ЮВ - юго-восточный, Ю - южный, ЮЗ - юго-западный, З - западный, СЗ - северо-западный.
Видимость - горизонтальная дальность видимости в метрах или километрах. При видимости от 1 до 10 км при отсутствии осадков обычно наблюдается дымка, при ухудшении видимости до 1 км и менее - туман. В сухую погоду видимость может ухудшаться дымом, пылью или мглою.
Явления - указаны атмосферные явления, наблюдавшиеся в срок или в последний час перед сроком; фигурными скобками обозначены явления, наблюдавшиеся между сроками (за 1-3 часа до срока); квадратными скобками обозначены град или гололедные отложения с указанием их диаметра в мм.
Облачность - указаны через наклонную черту общая и нижняя облачность в баллах и высота нижней границы облаков в метрах; квадратными скобками обозначены формы облаков: Ci - перистые, Cs - перисто-слоистые, Cc - перисто-кучевые, Ac - высококучевые, As - высокослоистые, Sc - слоисто-кучевые, Ns - слоисто-дождевые, Cu - кучевые, Cb - кучево-дождевые. Подробнее классификацию облаков см. в Атласе облаков (PDF).
T - Температура воздуха - температура, измеренная на высоте 2 м над землей.
Td - Температура точки росы - температура, при понижении до которой содержащийся в воздухе водяной пар достигнет насыщения.
f - Относительная влажность воздуха - влажноcть воздуха, измеренная на высоте 2 м над землей.
Te - Эффективная температура - температура, которую ощущает одетый по сезону человек в тени. Характеристика душности погоды. При расчете учитывается влияние влажности воздуха и скорости ветра на теплоощущения человека.
Tes - Эффективная температура на солнце - температура, которую ощущает человек, с поправкой на солнечный нагрев. Характеристика знойности погоды. Зависит от высоты солнца над горизонтом, облачности и скорости ветра. Ночью, в пасмурную погоду, а также при ветре 12 м/с и более поправка равна нулю.
P - Атмосферное давление - приведенное к уровню моря атмосферное давление.
Po - Атмосферное давление - измеренное на уровне метеостанции атмосферное давление.
Tmin - Минимальная температура - минимум температуры воздуха на высоте 2 м над землей.
Tmax - Максимальная температура - максимум температуры воздуха на высоте 2 м над землей.
R - Количество осадков - Количество выпавших осадков за период времени, мм. При наведении курсора мыши на число - период времени, за который выпало указанное количество осадков.
R24 - Количество осадков - Количество выпавших осадков за 24 часа, мм.
S - Снежный покров - Высота снежного покрова, см. При наведении курсора мыши на число - состояние снежного покрова и степень покрытия местности в баллах.